Location: Les Jeannots
(43.2262°N, 5.5774°E)
Time: 19:07:45
(UTC+00:00)

Terra - Pass Details

Date: 05 July 2020
Orbit: 701 x 703 km, 98.2° (Epoch: 12 August)

Event Time Altitude Azimuth Distance (km) Brightness Sun altitude
Exits shadow 20:31:39 12° 113° (ESE) 2,013 3.6 -10.9°
Maximum altitude 20:34:52 24° 65° (ENE) 1,458 3.3 -11.3°
Drops below altitude 10° 20:38:38 10° 13° (NNE) 2,180 4.8 -11.7°
Sets 20:41:15 0° 360° (N) 3,103 6.0 -12.1°
